Location: Felsheim
(48.7267°N, 10.7386°E)
Time: 18:46:37
(UTC+00:00)

Cosmos 2360 Rocket - Pass Details

Date: 09 April 2020
Orbit: 834 x 845 km, 71.0° (Epoch: 03 June)

Event Time Altitude Azimuth Distance (km) Brightness Sun altitude
Rises 21:29:03 0° 336° (NNW) 3,394 6.6 -28.4°
Reaches altitude 10° 21:32:03 10° 351° (N) 2,457 5.4 -28.6°
Maximum altitude 21:36:25 23° 42° (NE) 1,737 4.0 -29.0°
Enters shadow 21:37:30 21° 58° (ENE) 1,789 3.9 -29.1°
